This is the latest recevied weather packets stored in our database for station/object WY7EM. If no packets are shown the sender has not sent any weather packets the latest 10 day(s).
| Time | Temp. | Humidity | Pressure | Rain* | Wind** | Luminosity | Snow |
|---|---|---|---|---|---|---|---|
| 1777410398 | 20.56° C | 21% | 1016.6 hPa | 0 mm | - | 792 W/m² | - |
| 1777410096 | 20° C | 21% | 1016.6 hPa | 0 mm | - | 800 W/m² | - |
| 1777409792 | 20° C | 21% | 1016.8 hPa | 0 mm | - | 813 W/m² | - |
| 1777409488 | 20° C | 21% | 1016.6 hPa | 0 mm | - | 821 W/m² | - |
| 1777409184 | 20° C | 22% | 1016.8 hPa | 0 mm | - | 828 W/m² | - |
| 1777408880 | 20° C | 22% | 1016.6 hPa | 0 mm | - | 833 W/m² | - |
| 1777408576 | 20° C | 22% | 1016.9 hPa | 0 mm | - | 842 W/m² | - |
| 1777408272 | 20° C | 22% | 1017 hPa | 0 mm | - | 846 W/m² | - |
| 1777407966 | 19.44° C | 23% | 1017 hPa | 0 mm | - | 814 W/m² | - |
| 1777407664 | 20° C | 22% | 1017.4 hPa | 0 mm | - | 857 W/m² | - |
| 1777407364 | 20° C | 23% | 1016.9 hPa | 0 mm | - | 859 W/m² | - |
| 1777407058 | 21.11° C | 22% | 1017.2 hPa | 0 mm | - | 860 W/m² | - |
| 1777406755 | 21.67° C | 21% | 1017.2 hPa | 0 mm | - | 864 W/m² | - |
| 1777406450 | 20° C | 22% | 1017.4 hPa | 0 mm | - | 872 W/m² | - |
| 1777406149 | 19.44° C | 23% | 1017.3 hPa | 0 mm | - | 875 W/m² | - |
| 1777405845 | 20° C | 23% | 1017.4 hPa | 0 mm | - | 866 W/m² | - |
| 1777405542 | 19.44° C | 23% | 1017.5 hPa | 0 mm | - | 866 W/m² | - |
| 1777405239 | 20° C | 23% | 1017.8 hPa | 0 mm | - | 873 W/m² | - |
| 1777404938 | 19.44° C | 24% | 1017.8 hPa | 0 mm | - | 866 W/m² | - |
| 1777404634 | 20° C | 23% | 1017.5 hPa | 0 mm | - | 875 W/m² | - |
| 1777404330 | 19.44° C | 24% | 1017.7 hPa | 0 mm | - | 874 W/m² | - |
| 1777404027 | 18.33° C | 25% | 1017.7 hPa | 0 mm | - | 879 W/m² | - |
| 1777403722 | 18.33° C | 25% | 1017.9 hPa | 0 mm | - | 879 W/m² | - |
| 1777403420 | 18.33° C | 25% | 1018 hPa | 0 mm | - | 883 W/m² | - |
| 1777403115 | 18.89° C | 24% | 1017.9 hPa | 0 mm | - | 877 W/m² | - |
* Rain latest hour (hover to see other rain measurements)
** Current wind speed in m/s (hover to see current wind gust speed)